Location: Black Creek
(40.9000°S, 175.5500°E)
Time: 00:38:34
(UTC+00:00)

Meteor 1-24 Rocket - Pass Details

Date: 03 November 2024
Orbit: 789 x 926 km, 81.3° (Epoch: 03 December)

Event Time Altitude Azimuth Distance (km) Brightness Sun altitude
Rises 15:29:27 0° 182° (S) 3,612 7.5 -16.0°
Reaches altitude 10° 15:32:12 10° 173° (S) 2,661 6.9 -15.6°
Maximum altitude 15:37:46 36° 107° (ESE) 1,440 5.6 -14.7°
Drops below altitude 10° 15:43:11 10° 42° (NE) 2,593 6.3 -13.9°
Sets 15:45:49 0° 33° (NNE) 3,509 6.9 -13.5°
